UTC  calendar date,Angular Size (deg),Planetographic Subspacecraft Longitude (deg),Planetographic Subspacecraft Latitude (deg),Sub-Point Radius (km),Observer Distance (km),Phase Angle (deg),Planetographic solar Longitude (deg),Planetographic solar Latitude (deg)
2016-12-11 12:03:41.000000 UTC,16.55175772,4.36230799,39.9102642,69767.85736844,427039.55847296,99.2843209,264.30917568,-2.45449598
2016-12-11 12:13:41.000000 UTC,16.96822735,10.41182315,40.54569792,69718.86752364,414984.67344905,99.23638718,270.35404027,-2.45451358
2016-12-11 12:23:41.000000 UTC,17.41127975,16.46163154,41.21385944,69666.97906368,402797.96467261,99.18472442,276.39890485,-2.45453118
2016-12-11 12:33:41.000000 UTC,17.88367625,22.51176977,41.91773234,69611.92822386,390474.23465142,99.12891339,282.44376944,-2.45454878
2016-12-11 12:43:41.000000 UTC,18.38858187,28.56228109,42.66069472,69553.41953222,378007.94176027,99.06847105,288.48863403,-2.45456638
2016-12-11 12:53:41.000000 UTC,18.92964253,34.61321703,43.44658831,69491.12129047,365393.17127535,99.00283819,294.53349862,-2.45458398
2016-12-11 13:03:41.000000 UTC,19.51108065,40.66463952,44.27980297,69424.66039404,352623.60424143,98.93136403,300.57836321,-2.45460157
2016-12-11 13:13:41.000000 UTC,20.13781454,46.7166237,45.1653805,69353.61643461,339692.48435898,98.85328707,306.6232278,-2.45461917
2016-12-11 13:23:41.000000 UTC,20.81560878,52.7692617,46.10914322,69277.51506029,326592.58331136,98.76771088,312.66809239,-2.45463677
2016-12-11 13:33:41.000000 UTC,21.55126541,58.82266789,47.11785466,69195.82063483,313316.16537229,98.67357351,318.71295698,-2.45465436
2016-12-11 13:43:41.000000 UTC,22.35286923,64.8769861,48.19942197,69107.92836532,299854.95264727,98.56960824,324.75782157,-2.45467196
2016-12-11 13:53:41.000000 UTC,23.23010616,70.93239998,49.36315343,69013.15630624,286200.09339351,98.45429291,330.80268616,-2.45468956
2016-12-11 14:03:41.000000 UTC,24.19468089,76.98914806,50.62008932,68910.73807888,272342.13723212,98.32578372,336.84755075,-2.45470715
2016-12-11 14:13:41.000000 UTC,25.2608719,83.04754627,51.9834318,68799.81792191,258271.0235886,98.18182786,342.89241535,-2.45472475
2016-12-11 14:23:41.000000 UTC,26.44627898,89.10802274,53.46911024,68679.45108125,243976.09350996,98.01964681,348.93727994,-2.45474235
2016-12-11 14:33:41.000000 UTC,27.77284484,95.17117327,55.09653424,68548.61505435,229446.14134397,97.83577854,354.98214454,-2.45475994
2016-12-11 14:43:41.000000 UTC,29.26827401,101.23785367,56.88961124,68406.24174851,214669.53310719,97.62586112,1.02700913,-2.45477754
2016-12-11 14:53:41.000000 UTC,30.96803809,107.30934126,58.87814328,68251.2889351,199634.43584685,97.38433194,7.07187373,-2.45479513
2016-12-11 15:03:41.000000 UTC,32.91826368,113.38763455,61.09977738,68082.88480133,184329.2320643,97.10400282,13.11673832,-2.45481273
2016-12-11 15:13:41.000000 UTC,35.17997768,119.47605302,63.60278166,67900.60833831,168743.24551728,96.77545054,19.16160292,-2.45483032
2016-12-11 15:23:41.000000 UTC,37.83548519,125.58055838,66.45008147,67705.02325509,152867.99880387,96.38612747,25.20646752,-2.45484792
2016-12-11 15:33:41.000000 UTC,40.99817162,131.7130674,69.72526881,67498.68833523,136699.39819098,95.91904191,31.25133211,-2.45486551
2016-12-11 15:43:41.000000 UTC,44.82790859,137.90144195,73.54179257,67288.06856614,120241.57971711,95.35076853,37.29619671,-2.4548831
2016-12-11 15:53:41.000000 UTC,49.55573654,144.22983444,78.05743014,67087.14898336,103513.83586132,94.64840924,43.34106131,-2.4549007
2016-12-11 16:03:41.000000 UTC,55.52376747,151.12761505,83.49758261,66924.212156,86563.50628742,93.76492819,49.38592591,-2.45491829
2016-12-11 16:13:41.000000 UTC,63.24840116,289.32533844,89.70720808,66854.1433069,69491.04532613,92.6321104,55.43079051,-2.45493588
2016-12-11 16:23:41.000000 UTC,73.50967091,339.99079255,81.31435914,66978.62497328,52501.55757071,91.15081439,61.47565511,-2.45495348
2016-12-11 16:33:41.000000 UTC,87.41727156,346.82804293,70.2280152,67469.00327264,36017.62962286,89.18238963,67.5205197,-2.45497107
2016-12-11 16:43:41.000000 UTC,106.11899494,353.15453063,55.16560629,68543.0923182,20937.68572374,86.57032276,73.5653843,-2.45498866
2016-12-11 16:53:41.000000 UTC,128.54215814,359.35567666,34.12748218,70194.22092148,9180.57526865,83.34584045,79.6102489,-2.45500625
2016-12-11 17:03:41.000000 UTC,142.06832558,5.51370551,6.39001718,71443.29976638,4152.9684575,80.4943552,85.6551135,-2.45502384
2016-12-11 17:13:41.000000 UTC,128.53304037,11.66163413,-22.07908582,70925.29193794,8445.09677441,79.85307865,91.6999781,-2.45504144
2016-12-11 17:23:41.000000 UTC,106.13981748,17.82203311,-44.09930222,69439.09131296,20030.9886408,81.06774043,97.7448427,-2.45505903
2016-12-11 17:33:41.000000 UTC,87.45487564,24.02210873,-59.64914063,68192.22408651,35277.48866704,82.72905883,103.7897073,-2.45507662
2016-12-11 17:43:41.000000 UTC,73.55031882,30.31715172,-70.89153614,67430.69329895,52014.11238254,84.26672449,109.8345719,-2.45509421
2016-12-11 17:53:41.000000 UTC,63.28626828,36.88246925,-79.37579489,67039.37392375,69244.09338571,85.57371831,115.8794365,-2.4551118
2016-12-11 18:03:41.000000 UTC,55.55723688,44.85613911,-86.02253543,66880.38056697,86519.18276741,86.66576487,121.9243011,-2.45512939
2016-12-11 18:13:41.000000 UTC,49.58480505,219.19523547,-88.58332286,66857.3539691,103633.2250764,87.58063008,127.9691657,-2.45514698
2016-12-11 18:23:41.000000 UTC,44.85307586,231.80472474,-84.14937307,66910.91377913,120491.4505221,88.35384092,134.0140303,-2.45516457
2016-12-11 18:33:41.000000 UTC,41.02002732,238.6698239,-80.39841819,67005.89620447,137053.06153006,89.014186,140.0588949,-2.45518216
2016-12-11 18:43:41.000000 UTC,37.85457176,245.03835757,-77.18045562,67121.74001778,153304.47585032,89.58404611,146.1037595,-2.45519975
2016-12-11 18:53:41.000000 UTC,35.19675539,251.2579035,-74.38261714,67246.48279752,169246.13082859,90.08066206,152.1486241,-2.45521734
2016-12-11 19:03:41.000000 UTC,32.93311104,257.41287279,-71.92212526,67373.21122898,184885.66742732,90.5173551,158.1934887,-2.45523492
2016-12-11 19:13:41.000000 UTC,30.98126295,263.53396208,-69.73697841,67497.9905919,200234.28518175,90.90450012,164.2383533,-2.45525251
2016-12-11 19:23:41.000000 UTC,29.28012634,269.63502909,-67.77979711,67618.65416103,215304.74764277,91.25025753,170.2832179,-2.4552701
2016-12-11 19:33:41.000000 UTC,27.78352817,275.72325412,-66.01372647,67734.08920212,230110.27932827,91.5611133,176.3280825,-2.45528769
2016-12-11 19:43:41.000000 UTC,26.45595991,281.8027339,-64.40964449,67843.81135579,244663.95842007,91.84227622,182.3729471,-2.45530528
2016-12-11 19:53:41.000000 UTC,25.26968763,287.87597907,-62.94421641,67947.70830418,258978.39109465,92.09797131,188.4178117,-2.45532286
2016-12-11 20:03:41.000000 UTC,24.2027452,293.94461566,-61.59851042,68045.88406131,273065.54809255,92.33165814,194.4626763,-2.45534045
2016-12-11 20:13:41.000000 UTC,23.23751404,300.00974424,-60.35699429,68138.5638359,286936.69528053,92.54619468,200.5075409,-2.45535804
2016-12-11 20:23:41.000000 UTC,22.35970051,306.07213702,-59.2067957,68226.03578771,300602.37844279,92.74396159,206.55240549,-2.45537563
2016-12-11 20:33:41.000000 UTC,21.55758761,312.1323523,-58.13714878,68308.61548563,314072.43877479,92.9269573,212.59727009,-2.45539321
2016-12-11 20:43:41.000000 UTC,20.82147938,318.1908041,-57.13897409,68386.62444981,327356.04504872,93.0968715,218.64213469,-2.4554108
2016-12-11 20:53:41.000000 UTC,20.14328276,324.24780616,-56.20455596,68460.37748169,340461.73405934,93.25514242,224.68699929,-2.45542838
2016-12-11 21:03:41.000000 UTC,19.51618887,330.30360078,-55.32729169,68530.17549153,353397.45431384,93.40300195,230.73186388,-2.45544597
2016-12-11 21:13:41.000000 UTC,18.93442741,336.35837818,-54.50149458,68596.3017607,366170.61002444,93.54151142,236.77672848,-2.45546356
2016-12-11 21:23:41.000000 UTC,18.39307531,342.41228985,-53.72223765,68659.02033592,378788.10371934,93.67159016,242.82159308,-2.45548114
2016-12-11 21:33:41.000000 UTC,17.88790614,348.46545806,-52.98522866,68718.57572825,391256.37654201,93.79403864,248.86645767,-2.45549873
2016-12-11 21:43:41.000000 UTC,17.41527056,354.51798259,-52.28670918,68775.19339002,403581.44581161,93.90955711,254.91132227,-2.45551631
2016-12-11 21:53:41.000000 UTC,16.97200064,0.56994576,-51.62337249,68829.08063446,415768.93968972,94.01876091,260.95618686,-2.45553389
2016-12-11 22:03:41.000000 UTC,16.55533259,6.62141609,-50.99229643,68880.42778535,427824.12896538,94.12219306,267.00105146,-2.45555148
Kernels Used,,,,,,,,
pds/data/jno-j_e_ss-spice-6-v1.0/jnosp_1000/extras/mk/juno_2016_v03.tm,,,,,,,,
